User: anonymous   Login
Location: Mt. Bigelow
(32.4165°N, 110.7345°W)
Time: 12:52:33
(UTC-07:00)
Language:

Tiangong 2 - Orbit

View from above orbital plane
View from above orbital plane
View from above satellite
View from above satellite

Ground track
Ground track

The orbit data is extracted from the following two-line orbital elements,

1 41765U 16057A   18055.55557346  .00003463  00000-0  45461-4 0  9991
2 41765  42.7851 294.2735 0003580 216.4777 218.2771 15.60451902 82386
Epoch (UTC): 24 February 2018 13:20:01
Eccentricity: 0.0003580
inclination: 42.7851°
perigee height: 384 km
apogee height: 389 km
right ascension of ascending node: 294.2735°
argument of perigee: 216.4777°
revolutions per day: 15.60451902
mean anomaly at epoch: 218.2771°
orbit number at epoch: 8238

The dashed part of the orbit path shows where the satellite is in the earth's shadow,  

DLR